Theta_e
319 320 320 320 321 322 322 322 321 320 320 320 319 319 318 319 319 318 317 317 317 317 318 318 317 315 314 313 312 311 310 309 308 308 306 305 305 304 304 304 303 303
316 317 317 318 318 320 320 321 320 318 318 318 318 318 318 318 318 318 318 317 316 315 317 317 316 316 315 313 312 310 309 308 307 308 306 305 305 304 304 304 303 304
315 315 314 315 317 318 318 318 318 319 318 318 317 316 317 316 315 315 315 316 316 315 315 315 315 314 314 313 312 310 309 309 308 308 306 305 305 304 304 304 303 303
315 316 316 316 317 317 317 316 316 316 316 315 315 314 314 314 313 313 312 310 313 314 314 314 314 313 313 312 312 311 310 309 309 309 307 306 305 304 304 304 303 303
313 313 314 314 314 315 315 314 314 314 313 313 313 313 311 311 311 311 311 311 311 311 312 312 313 312 311 311 311 310 309 308 308 308 306 305 305 304 304 303 302 301
310 311 311 311 312 311 311 311 312 312 312 311 311 311 311 311 310 310 310 309 310 309 310 310 311 311 311 310 310 309 309 308 308 307 306 305 305 305 304 303 302 301
309 309 308 309 309 309 309 310 310 310 310 311 310 310 309 309 309 308 309 309 309 309 309 309 309 309 310 309 309 309 308 308 308 308 307 306 306 304 303 303 302 301
307 308 307 307 307 307 307 308 308 309 309 309 308 308 309 308 308 309 308 309 308 308 308 308 308 309 309 308 307 307 307 307 307 307 306 305 304 301 301 301 301 300
306 305 305 305 305 306 306 306 307 307 307 306 307 307 308 307 307 308 307 307 307 307 307 307 307 307 308 307 307 306 306 306 306 305 304 303 301 300 300 300 299 299
303 304 302 303 303 304 304 304 304 304 304 304 305 306 305 306 305 306 306 305 305 305 305 305 305 306 306 306 305 305 305 304 304 304 304 303 301 299 299 298 298 298
302 301 301 301 301 302 302 302 302 301 301 301 302 302 303 303 302 302 302 302 302 303 304 304 304 305 305 304 304 304 304 304 303 303 303 302 301 300 296 298 298 297
301 300 300 301 301 301 301 300 300 300 300 300 300 301 302 301 300 300 299 299 300 301 302 303 303 303 304 303 303 303 302 302 302 301 301 301 300 299 299 299 299 298
301 300 300 300 300 300 300 299 299 299 298 299 299 299 299 300 300 299 300 299 299 299 300 301 301 302 302 302 302 302 302 300 299 299 298 299 300 300 300 300 300 299
300 299 299 299 299 299 298 298 298 298 298 298 297 298 298 299 299 299 299 299 299 299 300 300 300 300 301 301 301 301 301 300 299 298 297 297 298 299 299 299 299 299
298 298 298 298 297 297 297 297 297 297 297 297 297 297 297 298 298 298 298 298 298 298 298 298 298 299 299 300 300 299 300 300 299 298 297 297 297 297 298 297 298 299
297 297 297 297 296 297 297 297 296 296 296 296 295 296 297 297 297 297 296 296 296 296 296 296 297 297 293 293 294 298 299 299 299 298 297 296 296 296 296 296 296 297
296 296 296 296 296 296 296 294 295 295 295 294 294 294 294 295 294 295 295 295 295 294 294 295 296 296 292 294 294 294 295 297 297 297 297 296 295 295 295 295 296 296
296 295 295 295 294 295 294 293 293 291 292 292 293 293 293 294 293 294 295 295 295 295 295 295 295 292 293 293 293 294 293 295 296 296 296 296 295 295 295 295 295 295
294 294 294 294 294 293 290 290 289 290 290 290 290 291 291 292 293 294 294 295 295 295 294 295 295 293 293 293 293 293 293 293 295 296 295 295 295 295 295 295 295 295
293 291 292 293 292 290 291 289 289 290 291 291 291 290 291 292 291 292 292 293 294 294 294 295 295 292 292 292 292 292 293 293 295 295 295 295 295 295 295 295 295 294
292 292 291 291 291 290 289 289 290 289 289 290 290 291 290 291 292 291 291 290 291 291 293 293 294 292 292 292 292 292 292 293 295 295 295 295 295 295 295 294 294 294
291 291 291 289 290 289 289 289 290 289 289 290 290 291 291 291 290 290 289 289 290 290 291 292 293 292 291 291 291 292 292 293 293 294 293 294 294 294 294 294 294 294
290 289 288 288 288 288 288 288 288 289 289 290 289 289 289 289 289 289 290 290 289 289 289 290 291 291 291 291 291 291 291 291 292 291 291 292 292 293 293 293 294 294
289 288 287 287 287 286 287 288 288 288 288 289 288 288 289 289 289 290 289 289 288 288 289 289 289 290 290 290 290 291 290 290 290 290 290 290 291 292 293 293 292 288
288 287 286 286 286 286 287 286 287 287 288 288 288 288 288 289 289 289 289 289 289 288 286 287 288 288 289 289 289 290 290 289 290 290 289 289 289 290 291 291 291 289
286 285 285 285 285 286 286 286 287 287 287 287 287 287 288 289 289 288 287 287 288 288 287 288 288 288 288 289 289 289 289 289 289 289 288 288 288 288 288 289 290 290
Wind_Speed
8 8 9 9 9 9 9 9 9 8 7 7 7 7 7 7 7 9 10 9 10 11 11 11 10 9 9 10 11 10 8 10 9 8 10 11 11 13 13 12 10 10
9 9 8 7 8 8 9 9 9 6 6 7 7 6 5 5 5 6 8 10 10 11 11 11 12 12 11 9 11 11 11 10 11 7 9 12 9 10 13 11 11 8
8 8 8 9 9 10 9 9 8 9 9 8 6 5 5 4 5 6 6 8 9 10 11 11 11 11 11 10 10 10 9 11 12 10 9 11 9 9 10 10 11 12
8 8 8 9 9 9 8 6 7 7 8 8 8 6 5 4 5 6 6 8 8 8 8 9 11 11 11 12 12 10 10 9 10 10 12 9 8 7 8 8 9 9
6 6 7 6 6 7 6 8 8 6 6 7 5 6 6 6 6 6 6 7 7 8 8 9 10 10 11 11 11 11 11 9 9 10 10 11 8 8 7 8 10 11
5 4 5 5 5 4 5 5 6 6 6 6 7 5 6 6 6 7 7 7 7 8 7 8 10 12 11 11 11 11 11 10 9 10 11 11 10 9 6 7 10 12
5 4 5 4 4 5 6 6 6 7 7 6 4 5 4 5 6 6 7 8 9 8 10 11 11 11 11 10 11 12 11 12 12 13 14 12 9 11 11 10 11 13
4 3 3 3 4 4 6 6 6 6 6 6 8 6 7 9 8 8 9 10 10 10 11 11 12 12 12 11 12 12 12 10 12 13 14 11 10 11 10 10 11 12
3 4 3 4 5 5 6 6 6 6 5 7 7 6 7 8 9 9 9 9 10 10 11 11 12 12 12 12 12 12 12 12 12 12 13 11 10 10 9 9 11 12
5 4 4 5 5 5 6 6 5 5 4 7 7 7 7 7 8 9 9 9 9 10 10 11 11 11 12 12 12 12 12 13 13 13 13 12 10 9 9 9 11 10
5 4 4 4 5 4 5 4 5 4 4 6 7 7 8 7 7 7 8 8 9 10 11 11 12 12 13 12 11 11 12 12 13 12 12 10 9 9 9 10 10 12
3 3 3 3 3 3 4 4 4 4 4 4 5 7 7 7 7 7 7 8 9 10 10 11 11 11 12 12 11 11 11 11 11 9 9 9 10 10 10 10 11 11
1 1 1 1 2 3 2 3 3 3 3 4 4 5 7 7 7 8 7 7 8 8 9 10 11 11 12 12 12 12 12 11 10 10 10 10 10 9 10 10 11 11
1 1 1 1 2 2 2 2 3 3 3 3 3 5 6 7 7 7 7 7 8 9 9 10 11 11 11 12 12 12 11 10 9 10 10 10 11 10 10 11 11 11
2 2 2 2 2 2 3 3 3 3 3 3 4 5 5 6 7 7 8 8 9 9 9 9 10 10 10 10 11 12 11 12 11 10 10 10 10 10 10 11 11 11
3 3 2 2 2 3 3 3 3 3 3 4 5 5 5 5 6 7 8 8 9 9 9 9 9 9 9 12 11 10 10 10 10 10 9 9 10 10 11 11 12 11
3 3 3 2 2 2 2 3 3 3 4 4 5 5 5 5 5 7 8 8 8 8 9 9 9 9 10 11 13 13 12 11 11 10 9 9 10 10 11 11 11 11
3 3 3 2 2 2 3 2 2 2 3 3 4 3 4 5 6 7 6 7 7 8 9 9 10 10 10 12 12 12 12 11 11 11 9 9 10 10 10 10 11 10
3 3 3 3 3 3 2 2 2 2 3 3 3 3 3 5 6 6 7 6 7 8 9 9 9 9 10 13 13 14 13 12 10 11 11 10 10 11 11 10 9 9
4 3 4 4 3 2 3 2 2 2 3 3 3 2 4 5 4 6 7 6 7 7 8 8 9 7 9 11 12 12 13 12 11 12 12 13 13 12 10 10 10 10
6 6 6 4 4 3 3 3 3 3 3 3 3 3 3 4 4 4 4 3 5 5 7 9 8 8 9 11 12 12 12 11 11 11 11 12 12 12 11 10 10 10
7 6 6 4 4 4 3 4 3 3 4 3 3 3 3 3 4 3 4 4 4 4 7 9 9 9 9 11 12 12 11 9 9 10 11 12 12 12 11 11 11 10
6 6 4 4 4 4 4 4 5 6 4 3 4 4 4 4 4 4 4 5 5 4 6 9 9 10 11 12 12 12 10 7 8 9 10 11 12 11 11 11 11 11
6 5 5 5 4 5 6 5 4 4 4 3 4 6 6 5 5 5 4 4 5 6 5 7 9 9 10 12 12 13 11 8 7 8 9 10 11 11 10 11 11 11
6 4 5 5 5 5 5 6 6 5 5 4 4 5 6 5 5 5 5 4 4 6 7 9 9 10 11 13 13 12 10 7 8 8 10 9 9 9 9 10 11 10
4 5 5 5 6 6 5 6 6 5 5 5 5 5 5 4 5 5 7 7 5 6 6 6 8 8 8 12 11 12 13 9 8 9 10 9 9 9 9 8 8 8
Wind_Direction
225 225 228 229 230 234 237 235 235 227 219 221 224 218 213 216 209 217 224 224 226 226 224 223 214 209 210 211 212 219 219 223 226 216 221 225 232 232 235 232 222 226
220 224 228 231 234 235 238 238 234 221 227 225 231 232 226 219 210 211 222 228 227 228 228 227 226 224 218 211 212 216 222 221 226 212 224 225 227 220 231 226 224 219
223 225 228 231 238 244 242 243 241 240 242 242 238 231 236 218 228 219 223 225 233 234 233 233 233 231 228 222 212 214 217 221 226 218 216 225 220 221 228 223 227 222
226 230 238 241 244 252 248 243 240 239 240 239 236 224 216 218 223 229 227 230 237 236 232 233 236 236 233 232 228 227 222 221 224 222 227 229 222 223 229 221 226 223
209 219 228 235 242 249 252 254 250 242 236 235 228 217 218 218 219 226 229 229 231 240 242 239 242 242 238 236 233 235 233 227 221 219 223 232 229 226 233 230 234 236
214 217 224 229 235 241 249 250 251 251 246 241 240 230 223 216 217 219 223 228 228 236 240 246 248 247 243 240 238 237 236 230 221 210 218 226 234 227 224 228 237 239
218 212 226 227 234 243 252 253 254 251 250 252 250 238 236 235 227 225 234 238 239 231 247 250 245 244 242 243 242 242 238 235 233 226 227 233 236 248 239 235 236 239
221 228 231 231 235 238 240 245 248 249 253 259 259 254 253 253 245 245 244 245 246 245 245 245 245 243 241 239 242 243 242 238 237 234 236 237 236 239 232 229 232 233
211 223 216 222 226 233 235 239 243 250 255 261 261 261 257 250 253 248 243 243 245 244 244 244 243 245 244 240 240 241 242 242 239 238 236 234 230 234 231 228 230 231
206 204 205 218 223 231 236 241 243 249 254 261 262 263 256 253 250 251 246 245 244 245 244 244 243 244 245 244 241 239 240 244 244 242 241 238 232 233 229 226 231 235
203 197 201 210 226 238 242 246 249 249 242 253 260 257 258 257 252 247 246 243 242 243 245 245 245 245 246 246 243 241 242 245 247 246 242 236 235 236 234 231 231 233
205 199 209 227 240 255 256 257 258 251 250 248 256 265 265 259 256 252 243 243 245 249 252 255 255 254 256 256 254 249 244 245 246 242 242 239 237 236 235 232 236 239
211 229 243 251 259 266 271 267 259 259 254 256 248 257 268 265 262 258 255 249 250 249 250 252 254 254 255 254 253 250 247 239 236 240 242 241 240 236 234 234 236 238
17 351 326 306 297 291 284 281 282 274 267 266 260 258 262 265 266 264 264 257 254 251 251 251 252 253 252 251 250 249 249 243 233 236 241 242 243 242 241 242 239 238
354 358 341 334 321 312 302 294 288 287 281 274 261 256 258 262 267 267 264 260 257 255 255 253 252 251 249 246 247 249 250 253 250 243 237 244 247 244 243 242 243 242
352 350 347 342 331 311 306 301 294 286 273 265 259 254 254 258 264 264 260 259 261 259 256 254 252 252 245 242 244 252 255 256 256 251 240 242 248 249 247 243 243 242
359 4 350 343 335 313 299 291 276 266 262 258 258 256 255 253 251 259 257 255 253 254 254 251 251 252 245 242 243 242 248 257 259 257 245 241 243 247 251 249 247 245
9 354 348 342 335 316 307 294 287 278 270 268 265 262 256 250 252 249 251 252 255 257 256 255 256 251 250 254 253 251 243 250 257 257 250 244 242 241 247 249 251 249
5 356 344 345 343 323 301 289 276 274 269 264 260 261 266 253 248 250 251 247 248 258 261 259 261 251 248 251 254 253 251 247 257 257 257 251 246 244 244 245 248 250
9 355 355 350 340 329 323 313 307 295 300 291 284 272 256 259 256 253 255 251 250 256 264 267 264 257 250 256 257 257 256 253 259 261 260 259 255 251 246 248 246 250
5 2 357 348 342 337 327 322 316 312 300 298 294 285 275 273 277 272 263 262 262 263 271 274 270 275 270 268 268 264 261 258 264 264 264 263 261 256 251 247 249 248
358 354 351 345 341 333 324 320 321 312 310 308 294 289 279 275 273 264 270 273 270 267 272 274 276 278 275 274 274 271 265 266 266 265 265 265 264 261 258 258 254 249
352 345 338 339 334 329 324 324 327 323 316 317 304 298 296 290 285 279 279 281 278 272 270 275 278 284 281 276 274 273 273 273 271 269 267 266 266 265 264 261 256 251
343 342 333 330 329 325 317 313 312 307 304 319 308 305 299 295 295 290 278 270 270 265 262 274 278 280 278 274 270 270 269 272 272 271 269 267 271 269 266 265 262 254
337 336 327 320 313 306 306 306 305 303 299 296 284 279 274 282 283 283 282 276 262 266 262 264 273 276 270 269 263 259 262 266 268 270 269 265 267 269 264 264 265 257
327 317 306 303 297 297 298 291 293 293 288 290 284 279 282 282 283 282 286 282 276 275 269 257 268 272 270 268 263 261 261 265 266 265 265 267 265 266 271 263 256 255